Regional Weather Roundup
Issued by NWS Goodland, KS

Home | Current Version | Previous Version | Graphics & Text | Print | Product List | Glossary On
Versions: 1 2 3 4 5 6 7 8 9 10 11 12 13 14 15 16 17 18 19 20 21 22 23 24 25 26 27 28 29 30 31 32 33 34 35 36 37 38 39 40 41 42 43 44 45 46 47 48 49 50
000
ASUS43 KGLD 292208
RWRGLD

GOODLAND FORECAST AREA HOURLY WEATHER ROUNDUP
NATIONAL WEATHER SERVICE GOODLAND KS
400 PM MDT SAT AUG 29 2015

...OFFICIAL OBSERVATIONS...

CITY           SKY/WX    TMP DP  RH WIND       PRES   REMARKS
GOODLAND KS    SUNNY     91  38  15 S12       30.12F
HILL CITY KS   SUNNY     90  53  28 SE10      30.05F
IMPERIAL NEB   MOSUNNY   93  44  18 SE6       30.07F
MCCOOK NEB     MOSUNNY   91  47  21 E6        30.05F
AKRON CO       SUNNY     90  38  16 S10G20    30.14F
BURLINGTON CO  SUNNY     87  43  21 S10G17    30.15F
LIMON CO       SUNNY     83  42  23 S12G20    30.21F
$$

...UNOFFICIAL OBSERVATIONS...

CITY           SKY/WX    TMP DP  RH WIND       PRES   REMARKS
COLBY KS       SUNNY     91  46  21 E10       30.10F
GOVE KS          N/A     92  32  12 MISG        N/A
LENORA KS        N/A     89  32  13 MISG        N/A
NORTON KS      SUNNY     88  52  29 E7        30.05F
SHARON SPRINGS   N/A     89  46  22 CALM        N/A
YUMA CO          N/A     89  44  20 S6G17       N/A
$$



USA.gov is the U.S. government's official web portal to all federal, state and local government web resources and services.